Wind_Speed
32 33 34 34 34 34 34 33 33 32 31 31 30 31 31 30 31 31 31 32 32 37 39 41 42 44 46 47 43 39 38 36 34 31 33 39 32 35 45 38 30 27 26
33 34 34 34 33 34 34 33 32 31 30 30 29 29 30 31 32 32 31 32 32 32 35 37 39 40 45 48 45 41 39 36 35 31 33 30 20 28 47 36 31 27 28
34 34 34 34 34 33 32 32 30 30 29 29 28 29 30 31 32 32 32 31 33 32 34 35 37 37 42 48 48 42 39 36 37 38 45 36 29 31 44 35 33 30 28
34 34 33 33 33 33 32 31 30 29 29 28 28 28 30 30 31 31 31 31 32 32 34 35 37 38 37 45 49 44 41 37 39 42 35 36 31 50 43 39 33 31 28
34 34 33 33 33 33 33 32 30 31 30 29 29 28 29 30 30 31 31 32 31 31 32 33 31 36 37 39 49 47 44 40 43 43 44 34 30 53 40 37 34 31 30
34 34 33 32 32 32 31 31 31 30 31 31 31 28 27 28 29 30 31 32 33 34 35 35 33 32 37 37 48 48 47 43 44 38 42 38 52 47 42 38 34 32 30
34 33 31 31 31 30 30 31 31 30 29 30 33 31 28 27 29 30 30 33 34 35 36 36 35 33 35 35 46 50 48 44 49 39 46 39 54 47 41 37 35 33 30
33 32 31 30 31 32 31 30 30 29 28 29 32 32 30 25 25 28 32 34 36 35 38 38 38 37 35 34 44 49 51 46 48 45 36 41 61 46 38 35 36 33 31
33 32 31 31 31 32 31 29 30 30 31 25 27 29 29 20 27 28 29 34 34 34 37 39 41 39 36 34 44 51 56 50 52 45 40 53 50 43 39 39 36 34 33
31 30 29 30 32 34 33 32 29 28 28 24 23 25 26 23 24 28 29 28 31 35 35 39 41 41 38 36 42 55 63 62 62 57 52 63 44 43 43 40 37 35 34
29 28 29 31 33 35 33 31 30 29 27 27 25 25 27 27 23 27 30 32 28 30 30 35 37 40 39 40 43 59 68 69 61 50 66 45 43 45 43 41 37 37 36
26 27 30 32 33 33 32 31 29 29 29 30 30 30 30 30 26 27 29 28 31 29 28 31 37 39 40 43 45 63 68 67 58 54 65 48 45 46 44 41 40 38 38
26 27 31 33 34 33 32 32 32 31 31 30 30 31 31 32 31 30 31 30 32 30 36 38 38 38 42 45 46 66 71 66 63 63 56 45 46 46 44 43 41 39 40
28 31 33 34 34 34 33 33 32 31 29 29 27 26 27 28 30 31 33 32 33 33 31 33 34 42 45 46 49 69 71 55 68 66 60 50 48 47 45 44 42 42 41
29 32 34 35 33 32 32 34 32 28 26 25 24 24 25 26 27 29 31 35 35 33 31 36 38 46 47 44 55 71 72 63 56 69 70 53 50 48 47 45 43 42 42
29 33 33 33 32 34 34 34 30 28 25 18 18 19 18 18 21 28 30 35 36 35 31 33 37 44 43 48 66 73 66 64 63 60 62 53 50 49 48 45 44 43 41
32 34 35 34 35 35 36 32 24 20 20 16 13 11 5 9 17 26 29 32 34 34 32 29 27 41 49 61 69 69 64 63 55 60 56 49 48 49 48 45 44 42 41
33 37 33 32 34 37 34 29 21 12 11 12 11 8 8 13 18 24 29 36 37 39 36 34 28 44 57 60 62 66 65 57 41 65 54 49 50 49 47 46 44 42 40
35 34 31 33 36 32 25 24 23 23 22 22 22 21 24 24 26 33 40 43 37 43 41 37 44 53 58 57 63 61 57 50 70 60 53 49 50 48 46 44 42 42 40
36 32 34 36 38 28 25 26 32 30 30 29 30 30 28 32 37 41 37 33 42 43 44 56 70 56 61 63 69 70 73 72 66 57 51 50 48 48 45 43 42 41 39
34 33 33 37 35 26 35 35 33 35 27 31 31 26 30 36 45 48 33 36 43 45 51 59 31 54 65 72 71 79 73 65 62 59 54 52 51 47 45 43 43 40 38
32 32 35 39 40 32 35 34 38 34 29 35 33 36 35 28 28 34 40 40 32 56 28 55 61 58 73 74 77 73 63 67 63 53 53 52 48 45 45 44 42 40 38
33 33 36 43 46 39 36 37 32 35 36 28 26 32 29 36 38 35 36 31 36 41 48 52 55 55 69 77 69 71 67 60 60 54 56 55 49 50 47 45 42 39 38
34 34 40 46 48 40 33 39 43 39 43 32 36 36 37 40 41 33 38 37 33 35 30 36 41 45 62 80 69 69 61 61 58 53 52 58 52 52 50 47 45 43 41
33 35 38 43 45 54 45 38 39 39 37 40 40 39 41 42 37 34 32 34 38 36 34 27 50 54 49 74 73 66 59 60 60 54 51 52 54 51 50 48 46 45 43
34 34 37 40 46 50 52 51 43 40 39 42 39 38 37 32 29 33 36 37 40 37 38 41 50 55 60 68 54 57 49 56 54 51 46 46 53 49 49 46 45 44 43
Wind_Direction
316 314 313 313 312 310 308 304 300 296 292 286 280 274 268 262 258 255 252 248 242 242 242 241 236 227 222 225 224 221 221 220 219 220 226 228 211 220 183 184 179 187 184
318 317 317 316 314 312 308 304 301 297 292 285 277 269 266 263 259 254 250 247 244 240 239 239 238 230 221 221 222 218 218 215 214 222 221 223 230 205 180 175 180 179 183
322 321 320 318 314 311 308 306 302 296 289 281 274 269 263 258 255 251 246 243 243 241 240 235 235 231 222 218 218 214 213 214 216 220 221 200 199 201 183 172 183 182 180
325 322 320 317 314 311 309 306 301 294 289 283 277 270 265 258 251 245 240 241 241 241 240 239 232 229 223 216 214 210 205 209 210 215 215 229 204 182 177 176 179 178 178
324 323 321 318 315 314 313 310 305 299 291 282 275 269 264 258 251 246 242 238 236 239 241 242 237 229 223 215 211 207 200 199 209 210 217 203 210 176 177 178 174 176 175
327 326 323 319 317 315 314 309 305 299 294 288 281 274 267 261 255 249 244 241 240 239 239 239 235 231 223 214 208 204 198 197 212 206 196 168 171 182 180 176 171 177 177
328 325 321 318 315 315 313 309 304 299 293 290 284 278 270 265 257 250 245 242 240 237 235 235 233 227 225 216 206 201 193 199 203 207 210 184 174 183 184 175 174 177 172
327 324 321 320 319 317 313 308 303 298 293 288 283 278 271 258 260 250 242 239 237 234 233 231 229 225 220 214 205 197 188 197 199 211 197 206 180 184 180 176 176 178 171
328 326 324 321 317 313 311 306 303 300 295 290 284 281 278 263 250 247 245 237 236 230 230 226 225 222 216 208 205 190 182 193 195 199 206 181 181 181 177 177 176 176 171
329 325 322 319 317 316 314 311 308 304 298 294 282 280 277 271 250 241 247 242 230 230 228 224 221 219 210 202 203 187 180 176 180 185 178 180 178 181 173 175 174 176 170
327 324 323 323 321 318 315 313 310 305 298 292 283 275 271 266 252 246 236 240 233 231 224 223 218 213 205 200 199 186 180 184 193 187 171 181 177 178 172 173 176 176 169
329 327 326 324 322 318 316 313 307 302 295 287 282 274 266 261 251 243 241 230 232 221 208 217 213 208 198 198 196 185 178 178 188 192 179 179 177 179 170 176 176 174 168
334 331 329 328 324 321 317 313 309 300 290 281 273 266 259 254 248 237 236 229 226 217 213 209 204 199 196 197 193 184 180 175 172 169 185 180 177 174 173 178 175 172 167
338 335 334 332 328 324 319 313 307 300 291 284 278 270 261 252 245 236 228 226 221 216 218 211 202 191 192 196 188 182 179 168 173 184 185 187 179 174 175 178 176 171 169
341 338 339 335 331 325 321 317 313 307 298 293 281 268 260 250 236 228 216 216 213 207 206 198 194 186 191 191 178 181 178 181 177 190 182 183 180 173 175 177 176 172 171
345 346 343 342 337 336 329 327 326 327 309 297 290 279 264 246 221 212 206 204 202 194 194 189 192 185 187 177 174 178 175 176 176 165 174 176 177 173 176 176 176 174 173
353 352 355 349 347 341 337 337 344 336 331 319 304 312 276 206 191 188 191 185 180 181 176 164 187 183 175 169 172 173 179 177 180 181 176 174 176 173 176 178 177 176 176
358 2 358 352 352 356 352 1 9 8 15 19 38 53 129 137 153 167 162 158 162 152 151 156 182 176 164 164 165 171 168 171 173 171 175 174 176 174 176 179 177 178 178
8 5 2 2 7 3 15 32 49 58 70 78 83 90 102 112 124 137 143 144 151 149 154 157 152 154 158 159 167 162 162 171 168 163 171 172 172 175 177 178 179 181 179
10 13 12 13 16 21 34 52 69 77 80 90 91 86 105 118 121 125 138 138 143 151 151 148 147 150 161 166 163 159 151 153 159 159 164 167 172 175 177 179 181 183 181
14 20 21 22 28 42 61 70 76 77 78 74 77 93 104 112 119 116 100 131 128 139 146 141 136 154 163 163 158 154 150 157 157 160 161 166 170 173 177 181 183 183 184
25 31 30 31 46 57 68 73 69 75 76 89 91 119 93 94 85 97 124 138 135 135 153 138 140 146 155 159 154 153 155 161 156 157 162 163 169 172 179 181 183 182 186
36 42 42 41 46 60 70 76 74 90 94 90 89 76 78 81 98 115 125 118 138 124 140 142 143 146 159 159 156 158 159 163 157 157 166 164 170 174 178 178 181 183 187
41 45 52 52 51 63 71 79 77 99 87 87 83 84 89 90 99 114 116 122 123 122 130 136 149 142 157 157 158 161 161 164 162 161 170 168 170 176 177 179 181 185 190
46 47 57 61 58 63 78 77 81 80 82 96 90 89 88 99 89 111 108 110 119 125 131 138 148 143 153 155 159 162 168 168 165 165 169 179 175 180 181 183 186 189 193
54 52 59 64 63 64 68 72 76 83 80 91 90 92 97 92 100 105 106 110 114 109 119 143 151 144 146 157 163 167 170 175 172 165 168 183 179 182 186 188 192 195 198
Height
3049 3044 3040 3035 3031 3027 3023 3021 3017 3015 3013 3012 3011 3010 3010 3011 3012 3014 3017 3019 3023 3026 3030 3034 3040 3048 3056 3062 3070 3078 3085 3092 3097 3102 3107 3107 3117 3123 3131 3136 3141 3145 3151
3042 3037 3033 3028 3023 3019 3016 3013 3009 3006 3005 3003 3003 3003 3003 3003 3004 3006 3009 3011 3015 3019 3023 3027 3032 3039 3047 3055 3063 3072 3079 3087 3093 3099 3102 3111 3116 3121 3131 3136 3141 3144 3150
3035 3030 3025 3020 3015 3012 3008 3004 3001 2998 2996 2995 2994 2994 2994 2995 2996 2997 3000 3004 3007 3011 3015 3019 3024 3031 3038 3047 3056 3066 3074 3082 3088 3095 3096 3106 3115 3120 3128 3133 3139 3144 3150
3028 3023 3018 3013 3008 3004 2999 2996 2992 2990 2987 2985 2984 2984 2984 2986 2987 2989 2993 2996 2999 3003 3007 3011 3017 3024 3031 3039 3049 3060 3070 3079 3085 3090 3097 3104 3111 3120 3125 3131 3138 3143 3149
3023 3016 3010 3005 3001 2996 2991 2987 2984 2979 2978 2977 2976 2976 2975 2976 2978 2980 2983 2987 2992 2996 2999 3003 3011 3017 3024 3032 3042 3053 3064 3074 3080 3086 3093 3101 3108 3118 3126 3132 3137 3142 3149
3015 3008 3003 2998 2993 2988 2984 2979 2975 2972 2968 2966 2965 2965 2966 2966 2968 2971 2974 2978 2982 2987 2992 2996 3003 3010 3016 3025 3034 3047 3059 3069 3076 3085 3088 3101 3108 3117 3126 3132 3136 3143 3150
3008 3003 2997 2992 2987 2982 2977 2972 2968 2965 2962 2958 2955 2955 2957 2958 2959 2961 2965 2969 2973 2978 2983 2989 2995 3003 3010 3019 3027 3040 3054 3066 3074 3081 3089 3099 3109 3119 3127 3131 3137 3144 3151
3004 2997 2991 2985 2979 2974 2970 2965 2961 2957 2954 2951 2947 2945 2946 2951 2950 2951 2955 2959 2963 2969 2974 2981 2987 2994 3003 3012 3021 3035 3048 3061 3070 3077 3091 3096 3106 3118 3125 3131 3138 3146 3152
2997 2990 2984 2978 2974 2969 2964 2958 2953 2948 2944 2944 2940 2937 2936 2941 2939 2942 2945 2948 2954 2960 2965 2972 2978 2987 2996 3007 3015 3029 3044 3056 3068 3076 3088 3100 3106 3115 3123 3131 3139 3147 3153
2991 2985 2979 2974 2968 2962 2955 2949 2944 2939 2935 2934 2932 2930 2928 2931 2933 2936 2937 2939 2944 2949 2956 2962 2970 2979 2990 3001 3009 3023 3039 3052 3063 3071 3084 3097 3105 3115 3122 3131 3140 3149 3154
2987 2981 2975 2968 2961 2955 2948 2941 2935 2931 2928 2924 2924 2923 2921 2921 2925 2926 2929 2932 2937 2942 2948 2954 2963 2972 2983 2994 3004 3018 3033 3044 3061 3074 3088 3096 3106 3115 3123 3132 3142 3151 3156
2984 2977 2970 2963 2956 2948 2940 2934 2928 2922 2919 2915 2913 2913 2912 2912 2916 2918 2920 2925 2928 2935 2939 2946 2955 2965 2977 2988 2999 3011 3029 3041 3059 3073 3086 3096 3105 3114 3123 3134 3144 3151 3157
2980 2973 2966 2958 2949 2940 2933 2925 2918 2913 2909 2905 2903 2901 2901 2901 2903 2908 2911 2916 2920 2927 2932 2938 2948 2960 2972 2982 2994 3009 3024 3037 3058 3072 3083 3095 3105 3115 3125 3136 3145 3152 3159
2976 2968 2960 2951 2942 2933 2924 2916 2908 2901 2896 2892 2890 2889 2889 2891 2893 2897 2902 2908 2914 2921 2927 2937 2944 2954 2967 2977 2990 3007 3021 3033 3052 3067 3082 3097 3106 3116 3127 3137 3146 3153 3161
2974 2965 2956 2946 2936 2925 2916 2907 2899 2891 2885 2881 2878 2877 2877 2879 2882 2887 2893 2898 2907 2916 2924 2933 2941 2951 2962 2974 2989 3003 3021 3036 3052 3060 3081 3098 3107 3117 3128 3138 3147 3155 3163
2972 2963 2953 2942 2930 2921 2909 2899 2890 2883 2877 2872 2869 2867 2867 2868 2871 2877 2884 2892 2901 2913 2921 2930 2940 2950 2961 2974 2989 3005 3022 3039 3054 3067 3085 3097 3109 3119 3130 3140 3149 3157 3165
2970 2960 2949 2938 2928 2916 2902 2891 2883 2877 2872 2868 2864 2861 2860 2862 2865 2871 2879 2888 2899 2911 2920 2929 2940 2950 2961 2974 2991 3009 3026 3040 3056 3071 3087 3098 3112 3121 3132 3142 3151 3159 3168
2969 2958 2948 2937 2926 2913 2900 2891 2883 2877 2873 2868 2864 2861 2861 2863 2865 2871 2879 2889 2901 2911 2919 2929 2940 2950 2963 2979 2998 3014 3025 3043 3056 3073 3090 3102 3115 3124 3135 3145 3152 3161 3170
2970 2959 2949 2938 2926 2914 2904 2896 2888 2883 2878 2874 2872 2869 2868 2869 2872 2877 2885 2894 2904 2914 2922 2931 2943 2959 2971 2987 3001 3015 3030 3042 3060 3078 3095 3106 3117 3127 3137 3146 3154 3163 3170
2972 2963 2952 2939 2928 2918 2908 2903 2898 2892 2887 2885 2884 2883 2881 2882 2886 2891 2898 2903 2911 2919 2926 2934 2947 2967 2979 2991 3006 3016 3032 3050 3065 3080 3095 3107 3118 3130 3139 3147 3156 3164 3169
2976 2967 2957 2944 2934 2924 2919 2915 2907 2901 2896 2897 2897 2895 2893 2892 2895 2901 2910 2914 2921 2928 2933 2944 2954 2965 2981 2992 3009 3024 3039 3052 3067 3077 3089 3104 3117 3127 3137 3147 3155 3163 3169
2982 2973 2963 2952 2940 2932 2928 2922 2919 2913 2910 2912 2911 2907 2904 2902 2907 2914 2922 2927 2931 2940 2943 2954 2963 2972 2989 3001 3014 3029 3038 3050 3061 3082 3091 3103 3116 3126 3135 3145 3154 3161 3169
2988 2981 2972 2960 2950 2942 2938 2933 2931 2928 2926 2923 2920 2921 2920 2920 2928 2929 2939 2940 2947 2952 2961 2968 2976 2987 2996 3010 3021 3035 3047 3059 3067 3078 3088 3098 3113 3124 3134 3144 3153 3161 3168
2995 2988 2981 2971 2963 2954 2951 2949 2946 2941 2941 2938 2939 2938 2939 2941 2943 2943 2951 2958 2962 2967 2974 2981 2991 2997 3009 3020 3033 3043 3052 3063 3071 3082 3096 3101 3113 3124 3134 3143 3150 3158 3165
3005 2997 2990 2982 2976 2967 2964 2962 2960 2956 2953 2952 2952 2954 2955 2957 2958 2961 2967 2970 2971 2978 2986 2993 3001 3011 3019 3031 3043 3051 3058 3067 3074 3085 3097 3110 3117 3127 3136 3143 3149 3156 3164
3015 3009 3002 2995 2987 2981 2978 2975 2973 2970 2967 2965 2964 2964 2966 2969 2973 2975 2977 2982 2985 2989 2996 3002 3011 3022 3031 3044 3054 3064 3068 3077 3084 3091 3103 3115 3119 3129 3137 3144 3151 3158 3163